• In Spain
  • List of Countries
  • For 7 days
  • Water Temperature
  • Satellite Maps
  • Weather Map
  • Weather Widgets
  • user-avatar
    Login

    Hourly Weather Madrid

    Today, 25 April, Wednesday

    Time Temperature Precipitation Wind Pressure Humidity
    00:00 +16°C° 0 mm 1 mps 706 mmHg 55%
    01:00 +15°C° 0 mm 1 mps 706 mmHg 57%
    02:00 +15°C° 0 mm 1 mps 706 mmHg 58%
    03:00 +14°C° 0 mm 1 mps 706 mmHg 60%
    04:00 +14°C° 0 mm 1 mps 706 mmHg 60%
    05:00 +14°C° 0 mm 1 mps 706 mmHg 61%
    06:00 +14°C° 0 mm 1 mps 706 mmHg 61%
    07:00 +17°C° 0 mm 2 mps 706 mmHg 54%
    08:00 +19°C° 0 mm 3 mps 707 mmHg 47%
    09:00 +22°C° 0 mm 3 mps 707 mmHg 39%
    10:00 +25°C° 0 mm 4 mps 707 mmHg 35%
    11:00 +26°C° 0 mm 4 mps 707 mmHg 30%
    12:00 +28°C° 0 mm 4 mps 707 mmHg 26%
    13:00 +29°C° 0 mm 4 mps 707 mmHg 25%
    14:00 +29°C° 0 mm 5 mps 706 mmHg 24%
    15:00 +29°C° 0 mm 5 mps 706 mmHg 24%
    16:00 +28°C° 0 mm 5 mps 706 mmHg 29%
    17:00 +27°C° 0 mm 5 mps 706 mmHg 34%
    18:00 +25°C° 0 mm 5 mps 706 mmHg 39%
    19:00 +22°C° 0.1 mm 4 mps 707 mmHg 44%
    20:00 +20°C° 0.1 mm 4 mps 707 mmHg 50%
    21:00 +18°C° 0.1 mm 3 mps 708 mmHg 56%
    22:00 +17°C° 0 mm 3 mps 708 mmHg 60%
    23:00 +16°C° 0 mm 3 mps 708 mmHg 64%

    Tomorrow, 26 April, Thursday

    Time Temperature Precipitation Wind Pressure Humidity
    00:00 +16°C° 0 mm 3 mps 708 mmHg 68%
    01:00 +14°C° 0 mm 3 mps 708 mmHg 70%
    02:00 +13°C° 0 mm 3 mps 708 mmHg 72%
    03:00 +14°C° 0 mm 2 mps 708 mmHg 74%
    04:00 +13°C° 0 mm 3 mps 708 mmHg 74%
    05:00 +12°C° 0 mm 3 mps 708 mmHg 75%
    06:00 +12°C° 0 mm 3 mps 708 mmHg 75%
    07:00 +14°C° 0 mm 3 mps 708 mmHg 68%
    08:00 +17°C° 0 mm 3 mps 708 mmHg 61%
    09:00 +19°C° 0 mm 3 mps 708 mmHg 55%
    10:00 +21°C° 0 mm 2 mps 708 mmHg 50%
    11:00 +23°C° 0 mm 2 mps 708 mmHg 45%
    12:00 +25°C° 0 mm 1 mps 708 mmHg 41%
    13:00 +25°C° 0 mm 1 mps 707 mmHg 38%
    14:00 +26°C° 0 mm 1 mps 707 mmHg 36%
    15:00 +27°C° 0 mm 2 mps 706 mmHg 34%
    16:00 +26°C° 0 mm 2 mps 706 mmHg 37%
    17:00 +25°C° 0 mm 2 mps 706 mmHg 40%
    18:00 +25°C° 0 mm 3 mps 705 mmHg 43%
    19:00 +23°C° 0 mm 2 mps 706 mmHg 46%
    20:00 +21°C° 0 mm 2 mps 706 mmHg 49%
    21:00 +19°C° 0 mm 2 mps 706 mmHg 51%
    22:00 +19°C° 0 mm 2 mps 705 mmHg 54%
    23:00 +18°C° 0 mm 2 mps 705 mmHg 57%

    Day after tomorrow, 27 April, Friday

    Time Temperature Precipitation Wind Pressure Humidity
    00:00 +17°C° 0 mm 2 mps 705 mmHg 60%
    01:00 +16°C° 0 mm 2 mps 704 mmHg 62%
    02:00 +16°C° 0 mm 1 mps 704 mmHg 64%
    03:00 +15°C° 0 mm 1 mps 704 mmHg 67%
    04:00 +15°C° 0 mm 1 mps 704 mmHg 69%
    05:00 +15°C° 0 mm 1 mps 704 mmHg 71%
    06:00 +15°C° 0 mm 1 mps 704 mmHg 73%
    07:00 +17°C° 0 mm 2 mps 704 mmHg 67%
    08:00 +19°C° 0 mm 2 mps 705 mmHg 61%
    09:00 +20°C° 0 mm 2 mps 705 mmHg 55%
    10:00 +22°C° 0.2 mm 3 mps 705 mmHg 51%
    11:00 +24°C° 0.2 mm 3 mps 704 mmHg 47%
    12:00 +25°C° 0.2 mm 4 mps 704 mmHg 42%
    13:00 +23°C° 0.1 mm 4 mps 704 mmHg 42%
    14:00 +23°C° 0.1 mm 4 mps 703 mmHg 41%
    15:00 +23°C° 0.1 mm 4 mps 703 mmHg 40%
    16:00 +23°C° 0 mm 4 mps 703 mmHg 41%
    17:00 +22°C° 0 mm 3 mps 703 mmHg 42%
    18:00 +22°C° 0 mm 3 mps 702 mmHg 44%
    19:00 +20°C° 0 mm 3 mps 703 mmHg 47%
    20:00 +19°C° 0 mm 3 mps 703 mmHg 49%
    21:00 +17°C° 0 mm 3 mps 703 mmHg 52%
    22:00 +16°C° 0 mm 3 mps 703 mmHg 55%
    23:00 +14°C° 0 mm 3 mps 703 mmHg 57%

    28 April, Saturday

    Time Temperature Precipitation Wind Pressure Humidity
    00:00 +13°C° 0 mm 3 mps 702 mmHg 59%
    01:00 +13°C° 0 mm 3 mps 702 mmHg 64%
    02:00 +12°C° 0 mm 3 mps 702 mmHg 69%
    03:00 +11°C° 0 mm 3 mps 702 mmHg 74%
    04:00 +11°C° 0 mm 3 mps 702 mmHg 76%
    05:00 +11°C° 0 mm 3 mps 701 mmHg 78%
    06:00 +10°C° 0 mm 3 mps 701 mmHg 81%
    07:00 +12°C° 0 mm 4 mps 702 mmHg 73%
    08:00 +13°C° 0 mm 5 mps 702 mmHg 64%
    09:00 +14°C° 0 mm 6 mps 702 mmHg 56%
    10:00 +14°C° 0 mm 6 mps 702 mmHg 55%
    11:00 +15°C° 0 mm 7 mps 701 mmHg 54%
    12:00 +15°C° 0 mm 7 mps 701 mmHg 54%
    13:00 +15°C° 0 mm 7 mps 701 mmHg 52%
    14:00 +15°C° 0 mm 7 mps 701 mmHg 51%
    15:00 +16°C° 0 mm 7 mps 700 mmHg 49%
    16:00 +15°C° 0.1 mm 7 mps 700 mmHg 49%
    17:00 +14°C° 0.1 mm 6 mps 700 mmHg 48%
    18:00 +14°C° 0.1 mm 6 mps 700 mmHg 48%
    19:00 +11°C° 0.1 mm 6 mps 700 mmHg 53%
    20:00 +10°C° 0.1 mm 5 mps 700 mmHg 58%
    21:00 +8°C° 0.1 mm 5 mps 701 mmHg 63%
    22:00 +8°C° 0.1 mm 5 mps 701 mmHg 65%
    23:00 +7°C° 0.1 mm 5 mps 701 mmHg 68%

    29 April, Sunday

    Time Temperature Precipitation Wind Pressure Humidity
    00:00 +7°C° 0.1 mm 4 mps 701 mmHg 70%
    01:00 +6°C° 0.1 mm 5 mps 701 mmHg 72%
    02:00 +6°C° 0.1 mm 5 mps 700 mmHg 75%
    03:00 +5°C° 0.1 mm 5 mps 700 mmHg 77%
    04:00 +4°C° 0.1 mm 6 mps 700 mmHg 79%
    05:00 +3°C° 0.1 mm 6 mps 700 mmHg 81%
    06:00 +3°C° 0.1 mm 6 mps 701 mmHg 83%
    07:00 +4°C° 0 mm 6 mps 701 mmHg 76%
    08:00 +5°C° 0 mm 7 mps 702 mmHg 69%
    09:00 +6°C° 0 mm 7 mps 702 mmHg 62%
    10:00 +7°C° 0.2 mm 8 mps 702 mmHg 58%
    11:00 +9°C° 0.2 mm 8 mps 702 mmHg 54%
    12:00 +10°C° 0.2 mm 8 mps 702 mmHg 50%
    13:00 +11°C° 0.2 mm 8 mps 702 mmHg 48%
    14:00 +12°C° 0.2 mm 8 mps 701 mmHg 46%
    15:00 +12°C° 0.2 mm 8 mps 701 mmHg 44%
    16:00 +11°C° 0.1 mm 7 mps 701 mmHg 46%
    17:00 +11°C° 0.1 mm 7 mps 702 mmHg 49%
    18:00 +10°C° 0.1 mm 6 mps 702 mmHg 51%
    19:00 +9°C° 0.1 mm 5 mps 703 mmHg 57%
    20:00 +8°C° 0.1 mm 4 mps 703 mmHg 62%
    21:00 +7°C° 0.1 mm 4 mps 704 mmHg 68%
    22:00 +7°C° 0 mm 3 mps 704 mmHg 71%
    23:00 +7°C° 0 mm 3 mps 704 mmHg 73%

    30 April, Monday

    Time Temperature Precipitation Wind Pressure Humidity
    00:00 +5°C° 0 mm 3 mps 704 mmHg 76%
    01:00 +5°C° 0 mm 3 mps 704 mmHg 78%
    02:00 +5°C° 0 mm 2 mps 704 mmHg 80%
    03:00 +5°C° 0 mm 2 mps 704 mmHg 82%
    04:00 +5°C° 0 mm 2 mps 704 mmHg 82%
    05:00 +5°C° 0 mm 2 mps 704 mmHg 82%
    06:00 +5°C° 0 mm 2 mps 704 mmHg 82%
    07:00 +6°C° 0 mm 2 mps 705 mmHg 74%
    08:00 +8°C° 0 mm 2 mps 705 mmHg 66%
    09:00 +10°C° 0 mm 3 mps 705 mmHg 58%
    10:00 +11°C° 0.1 mm 3 mps 705 mmHg 55%
    11:00 +12°C° 0.1 mm 3 mps 705 mmHg 51%
    12:00 +13°C° 0.1 mm 3 mps 704 mmHg 48%
    13:00 +13°C° 0.3 mm 3 mps 704 mmHg 45%
    14:00 +14°C° 0.3 mm 3 mps 704 mmHg 43%
    15:00 +14°C° 0.3 mm 3 mps 703 mmHg 41%
    16:00 +14°C° 0.2 mm 3 mps 704 mmHg 43%
    17:00 +13°C° 0.2 mm 3 mps 704 mmHg 46%
    18:00 +13°C° 0.2 mm 3 mps 704 mmHg 48%
    19:00 +12°C° 0.1 mm 3 mps 704 mmHg 54%
    20:00 +10°C° 0.1 mm 4 mps 705 mmHg 59%
    21:00 +8°C° 0.1 mm 4 mps 706 mmHg 64%
    22:00 +7°C° 0.1 mm 4 mps 706 mmHg 67%
    23:00 +7°C° 0.1 mm 4 mps 706 mmHg 70%
    Show more